EST,Max TemperatureF,Mean TemperatureF,Min TemperatureF,Max Dew PointF,MeanDew PointF,Min DewpointF,Max Humidity, Mean Humidity, Min Humidity, Max Sea Level PressureIn, Mean Sea Level PressureIn, Min Sea Level PressureIn, Max VisibilityMiles, Mean VisibilityMiles, Min VisibilityMiles, Max Wind SpeedMPH, Mean Wind SpeedMPH, Max Gust SpeedMPH,PrecipitationIn, CloudCover, Events, WindDirDegrees
2013-2-1,25,11,-4,20,6,-7,88,73,58,30.43,30.08,29.75,10,4,0,28,9,39,0.08,7,Fog-Snow,274
2013-2-2,27,11,-5,25,13,-9,95,69,42,30.41,30.11,29.93,10,4,0,15,2,20,0.17,6,Fog-Snow,180
2013-2-3,27,23,19,22,17,12,88,78,68,30.10,29.91,29.77,9,3,1,21,8,35,0.06,8,Snow,265
2013-2-4,36,27,18,31,20,10,89,68,47,30.14,29.96,29.83,10,4,1,14,5,21,0.24,8,Snow,218
2013-2-5,38,36,33,34,32,30,96,86,76,29.96,29.88,29.81,10,7,1,18,7,38,0.17,8,Rain-Snow,248
2013-2-6,38,29,20,30,25,18,96,83,69,30.35,30.18,29.91,10,8,2,18,5,26,T,7,Rain,286
2013-2-7,45,33,20,32,25,17,92,71,49,30.35,30.23,30.05,10,7,2,15,4,20,0.00,3,,146
2013-2-8,42,34,26,37,28,19,92,81,70,30.19,29.97,29.82,10,6,2,25,11,37,0.12,8,Rain-Snow,275
2013-2-9,33,24,15,18,15,12,88,65,41,30.43,30.33,30.18,10,8,2,18,5,25,T,5,Snow,306
2013-2-10,49,31,12,32,17,9,88,59,29,30.42,30.29,30.07,10,9,6,13,3,20,0.02,3,Rain,177
2013-2-11,60,50,39,46,34,17,77,52,26,30.04,29.90,29.79,10,9,2,26,12,40,0.10,5,Rain,215
2013-2-12,49,38,26,24,21,17,75,53,31,30.12,30.03,29.94,10,10,10,23,8,43,0.00,2,,260
2013-2-13,40,32,24,32,28,20,92,73,54,29.96,29.73,29.60,10,4,0,14,3,20,0.28,7,Fog-Snow,297
2013-2-14,42,35,28,26,24,21,92,71,49,30.04,29.99,29.86,10,10,9,17,4,23,T,6,,197
2013-2-15,40,34,27,32,29,23,92,81,70,30.09,30.02,29.97,10,6,0,14,3,18,0.14,7,Fog-Snow,297
2013-2-16,30,22,14,23,18,12,88,72,55,30.06,29.97,29.86,10,6,2,15,5,21,0.01,7,Snow,313
2013-2-17,20,12,4,16,8,1,84,67,49,30.31,30.01,29.86,10,3,0,21,9,25,0.11,8,Fog-Snow,283
2013-2-18,49,22,-6,28,10,-10,87,60,33,30.41,30.27,30.03,10,9,6,14,4,24,0.00,0,,174
2013-2-19,43,35,27,36,27,16,85,63,41,30.01,29.85,29.71,10,9,2,24,11,36,0.14,7,Rain-Snow,217
2013-2-20,27,23,18,18,14,9,77,66,55,30.26,30.06,29.93,10,5,1,22,10,35,T,8,Snow,283
2013-2-21,28,22,16,16,11,7,77,67,57,30.35,30.29,30.19,10,10,6,12,4,18,T,5,Snow,308
2013-2-22,42,33,24,34,27,10,89,62,35,30.26,30.13,30.05,10,10,6,15,4,20,0.10,6,Rain,159
2013-2-23,56,42,28,41,33,27,96,71,46,30.04,29.93,29.85,10,8,4,13,2,17,0.00,5,,305
2013-2-24,41,31,20,31,23,15,92,68,44,30.19,30.00,29.85,10,9,6,18,6,25,0.00,6,,301
2013-2-25,48,32,16,19,17,13,92,60,28,30.23,30.15,30.08,10,9,7,10,2,14,0.00,2,,4
2013-2-26,45,36,26,36,28,17,73,59,44,30.08,29.78,29.56,10,10,6,28,8,40,0.09,6,Rain,154
2013-2-27,41,37,33,37,31,27,100,82,64,29.75,29.67,29.55,10,7,2,20,6,26,0.19,8,Rain-Snow,240
2013-2-28,33,31,29,28,25,23,85,79,72,29.85,29.74,29.64,10,4,1,21,10,29,0.08,8,Rain-Snow,263